FDX79 KMEM-LOWW

Flight info

Callsign FDX79
Flight time N/A
Altitude 31000
Route GOETZ7 DIYAB DCT HITMN Q34 KONGO Q71 PSB DCT MPV DCT PQI DCT TAFFY/N0467F330 N741B LOMSI/M080F340 DCT 55N050W 57N040W 58N030W 56N020W DCT PIKIL DCT SOVED/N0458F350 DCT MIMKU DCT AMCON DCT TRN DCT ZOFAT DCT TLA DCT AGPED DCT TOPPA DCT SOGPO DCT DOJOH DCT DODEN DCT NEGIX DCT DINKU DCT AKIMA/N0463F310 DCT MASUR MASUR3W
Aircraft A306/H-SDE3FGHIRWY/LB1

Departure

Time N/A
Airport Memphis International Airport (KMEM)

Arrival

Time 2026-04-22 13:16
Airport Vienna International Airport (LOWW)
Time Latitude Longitude Altitude Speed Heading
2026-04-22 12:39 51.19495 7.28222 33347 ft 471 kts 138°
2026-04-22 12:40 51.09331 7.41454 33349 ft 472 kts 138°
2026-04-22 12:40 50.95852 7.58885 33349 ft 473 kts 139°
2026-04-22 12:41 50.75915 7.85894 33328 ft 473 kts 134°
2026-04-22 12:41 50.57262 8.15086 33321 ft 472 kts 127°
2026-04-22 12:42 50.40833 8.47332 33322 ft 472 kts 127°
2026-04-22 12:42 50.23215 8.77628 33321 ft 473 kts 131°
2026-04-22 12:43 50.05130 9.07559 33322 ft 473 kts 131°
2026-04-22 12:43 49.86910 9.37364 33312 ft 478 kts 131°
2026-04-22 12:44 49.68474 9.67183 33304 ft 478 kts 131°
2026-04-22 12:44 49.50117 9.96528 33292 ft 478 kts 131°
2026-04-22 12:45 49.31510 10.25917 33292 ft 479 kts 131°
2026-04-22 12:45 49.22929 10.41464 33293 ft 473 kts 114°
2026-04-22 12:45 49.17808 10.59940 33303 ft 472 kts 108°
2026-04-22 12:46 49.07874 10.97155 33294 ft 473 kts 109°
2026-04-22 12:46 48.97836 11.33923 33294 ft 473 kts 109°
2026-04-22 12:47 48.87619 11.70781 33284 ft 473 kts 109°
2026-04-22 12:47 48.77278 12.07505 33287 ft 473 kts 110°
2026-04-22 12:48 48.66830 12.44052 33286 ft 472 kts 110°
2026-04-22 12:48 48.56268 12.80440 33284 ft 470 kts 110°
2026-04-22 12:49 48.44335 13.20919 33288 ft 468 kts 111°
2026-04-22 12:49 48.42072 13.29313 33266 ft 463 kts 100°
2026-04-22 12:49 48.42311 13.47836 33266 ft 454 kts 82°
2026-04-22 12:50 48.44449 13.85783 33268 ft 455 kts 82°
2026-04-22 12:50 48.46455 14.23587 33266 ft 454 kts 83°
2026-04-22 12:51 48.47413 14.42522 33266 ft 453 kts 83°
2026-04-22 12:51 48.47880 14.51993 33265 ft 453 kts 83°
2026-04-22 12:52 48.48340 14.61458 33248 ft 452 kts 83°
2026-04-22 12:52 48.48794 14.70926 33244 ft 453 kts 83°
2026-04-22 12:52 48.49015 14.75642 32874 ft 448 kts 83°
2026-04-22 12:53 48.49158 14.78741 32308 ft 445 kts 83°
2026-04-22 12:53 48.49444 14.84909 30976 ft 444 kts 83°
2026-04-22 12:53 48.49658 14.89558 29946 ft 442 kts 83°
2026-04-22 12:53 48.49866 14.94174 28872 ft 440 kts 84°
2026-04-22 12:54 48.50004 14.97232 28081 ft 439 kts 84°
2026-04-22 12:54 48.50211 15.01824 26753 ft 441 kts 84°
2026-04-22 12:54 48.50420 15.06452 25446 ft 441 kts 84°
2026-04-22 12:54 48.50623 15.11075 24288 ft 437 kts 84°
2026-04-22 12:55 48.50819 15.15627 23245 ft 429 kts 84°
2026-04-22 12:55 48.51012 15.20088 22129 ft 425 kts 84°
2026-04-22 12:55 48.51197 15.24428 21140 ft 417 kts 84°
2026-04-22 12:55 48.51380 15.28763 20244 ft 408 kts 84°
2026-04-22 12:56 48.51561 15.33030 19128 ft 406 kts 84°
2026-04-22 12:56 48.51735 15.37224 18339 ft 396 kts 84°
2026-04-22 12:56 48.51903 15.41334 17550 ft 388 kts 84°
2026-04-22 12:56 48.51915 15.45383 16892 ft 383 kts 90°
2026-04-22 12:57 48.51726 15.49327 16492 ft 385 kts 92°
2026-04-22 12:57 48.51500 15.53371 16075 ft 387 kts 92°
2026-04-22 12:57 48.51269 15.57409 15650 ft 386 kts 92°
2026-04-22 12:57 48.51037 15.61439 15268 ft 383 kts 92°
2026-04-22 12:58 48.50804 15.65436 14860 ft 382 kts 92°
2026-04-22 12:58 48.50575 15.69368 14485 ft 380 kts 92°
2026-04-22 12:58 48.50345 15.73331 14042 ft 378 kts 92°
2026-04-22 12:58 48.50114 15.77276 13691 ft 372 kts 92°
2026-04-22 12:59 48.49886 15.81085 13403 ft 355 kts 92°
2026-04-22 12:59 48.49670 15.84682 13121 ft 333 kts 92°
2026-04-22 12:59 48.49467 15.88068 12830 ft 314 kts 92°
2026-04-22 12:59 48.49275 15.91264 12518 ft 299 kts 92°
2026-04-22 13:00 48.49090 15.94339 12203 ft 290 kts 92°
2026-04-22 13:00 48.48909 15.97332 11845 ft 291 kts 92°
2026-04-22 13:00 48.48726 16.00376 11544 ft 290 kts 92°
2026-04-22 13:00 48.48542 16.03413 11203 ft 291 kts 92°
2026-04-22 13:01 48.48334 16.06449 10918 ft 290 kts 96°
2026-04-22 13:01 48.47727 16.09327 10607 ft 294 kts 116°
2026-04-22 13:01 48.46412 16.11678 10409 ft 295 kts 138°
2026-04-22 13:01 48.44748 16.13486 10187 ft 295 kts 144°
2026-04-22 13:02 48.43032 16.15225 9768 ft 298 kts 144°
2026-04-22 13:02 48.41309 16.16956 9382 ft 296 kts 144°
2026-04-22 13:02 48.39604 16.18683 8966 ft 295 kts 145°
2026-04-22 13:02 48.37928 16.20369 8637 ft 293 kts 145°
2026-04-22 13:03 48.36234 16.22069 8154 ft 292 kts 144°
2026-04-22 13:03 48.34557 16.23774 7800 ft 291 kts 144°
2026-04-22 13:03 48.32892 16.25481 7469 ft 289 kts 144°
2026-04-22 13:03 48.31233 16.27181 7190 ft 288 kts 144°
2026-04-22 13:04 48.29576 16.28862 6858 ft 286 kts 145°
2026-04-22 13:04 48.27917 16.30541 6553 ft 286 kts 144°
2026-04-22 13:04 48.26301 16.32187 6274 ft 283 kts 144°
2026-04-22 13:04 48.24618 16.33716 5966 ft 283 kts 154°
2026-04-22 13:05 48.22743 16.34640 5655 ft 283 kts 165°
2026-04-22 13:05 48.20838 16.35356 5351 ft 282 kts 166°
2026-04-22 13:05 48.18933 16.36061 5104 ft 282 kts 166°
2026-04-22 13:05 48.17034 16.36787 4878 ft 281 kts 165°
2026-04-22 13:06 48.15152 16.37577 4565 ft 280 kts 164°
2026-04-22 13:06 48.13280 16.38378 4318 ft 279 kts 164°
2026-04-22 13:06 48.11434 16.39169 4030 ft 278 kts 164°
2026-04-22 13:06 48.09577 16.39966 3952 ft 278 kts 164°
2026-04-22 13:07 48.07722 16.40770 3946 ft 278 kts 163°
2026-04-22 13:07 48.05908 16.41796 3947 ft 278 kts 156°
2026-04-22 13:07 48.04150 16.42979 3950 ft 277 kts 155°
2026-04-22 13:07 48.02390 16.44183 3949 ft 278 kts 155°
2026-04-22 13:08 48.00647 16.45370 3935 ft 269 kts 155°
2026-04-22 13:08 47.99001 16.46496 3946 ft 252 kts 155°
2026-04-22 13:08 47.97473 16.47537 3948 ft 237 kts 155°
2026-04-22 13:08 47.96011 16.48528 3944 ft 224 kts 155°
2026-04-22 13:09 47.94628 16.49466 3943 ft 213 kts 155°
2026-04-22 13:09 47.93280 16.50383 3945 ft 214 kts 155°
2026-04-22 13:09 47.91924 16.51305 3957 ft 214 kts 154°
2026-04-22 13:09 47.90751 16.52624 3853 ft 211 kts 123°
2026-04-22 13:10 47.90299 16.54581 3785 ft 201 kts 86°
2026-04-22 13:10 47.90702 16.56508 3663 ft 195 kts 53°
2026-04-22 13:10 47.91466 16.58119 3547 ft 194 kts 53°
2026-04-22 13:10 47.92175 16.59895 3430 ft 196 kts 58°
2026-04-22 13:11 47.92717 16.61783 3299 ft 198 kts 65°
2026-04-22 13:11 47.93275 16.63654 3158 ft 195 kts 49°
2026-04-22 13:11 47.94372 16.64604 3026 ft 185 kts
2026-04-22 13:11 47.95652 16.64640 2945 ft 184 kts 350°
2026-04-22 13:12 47.96888 16.64178 2933 ft 183 kts 343°
2026-04-22 13:12 47.98102 16.63665 2801 ft 174 kts 343°
2026-04-22 13:12 47.99206 16.63201 2575 ft 157 kts 344°
2026-04-22 13:12 48.00218 16.62786 2356 ft 142 kts 344°
2026-04-22 13:13 48.01118 16.62403 2188 ft 132 kts 343°
2026-04-22 13:13 48.02011 16.62021 1999 ft 134 kts 343°
2026-04-22 13:13 48.02926 16.61640 1816 ft 138 kts 345°
2026-04-22 13:13 48.03854 16.61247 1627 ft 139 kts 343°
2026-04-22 13:14 48.04790 16.60848 1441 ft 139 kts 343°
2026-04-22 13:14 48.05714 16.60462 1266 ft 139 kts 344°
2026-04-22 13:14 48.06652 16.60071 1144 ft 141 kts 344°
2026-04-22 13:14 48.07590 16.59675 955 ft 135 kts 339°
2026-04-22 13:15 48.08471 16.59285 776 ft 132 kts 342°
2026-04-22 13:15 48.09370 16.58913 643 ft 129 kts 342°
2026-04-22 13:15 48.10147 16.58584 619 ft 103 kts 344°
2026-04-22 13:15 48.10716 16.58351 627 ft 70 kts 346°
2026-04-22 13:16 48.11078 16.58192 615 ft 39 kts 346°
2026-04-22 13:16 48.11360 16.58076 619 ft 41 kts 343°
2026-04-22 13:16 48.11604 16.57968 621 ft 32 kts 343°
2026-04-22 13:16 48.11778 16.57904 619 ft 18 kts 345°
2026-04-22 13:17 48.11848 16.57800 617 ft 13 kts 292°
2026-04-22 13:17 48.11860 16.57683 621 ft 8 kts 265°
2026-04-22 13:17 48.11854 16.57646 615 ft 1 kts 256°
2026-04-22 13:17 48.11851 16.57633 622 ft 2 kts 256°
2026-04-22 13:18 48.11846 16.57617 630 ft 1 kts 235°
2026-04-22 13:18 48.11826 16.57610 615 ft 6 kts 179°
2026-04-22 13:18 48.11761 16.57628 619 ft 9 kts 169°
2026-04-22 13:18 48.11713 16.57587 622 ft 8 kts 236°
2026-04-22 13:19 48.11668 16.57539 620 ft 8 kts 191°
2026-04-22 13:19 48.11612 16.57546 615 ft 8 kts 182°
2026-04-22 13:19 48.11559 16.57514 615 ft 9 kts 208°
2026-04-22 13:19 48.11505 16.57470 626 ft 9 kts 208°
2026-04-22 13:20 48.11450 16.57425 615 ft 9 kts 209°
2026-04-22 13:20 48.11424 16.57378 615 ft 4 kts 273°
2026-04-22 13:20 48.11447 16.57314 620 ft 10 kts 298°
2026-04-22 13:20 48.11488 16.57200 615 ft 15 kts 296°
2026-04-22 13:21 48.11538 16.57045 615 ft 18 kts 294°
2026-04-22 13:21 48.11599 16.56858 620 ft 22 kts 295°
2026-04-22 13:21 48.11669 16.56644 618 ft 23 kts 296°
2026-04-22 13:21 48.11739 16.56431 623 ft 20 kts 296°
2026-04-22 13:22 48.11708 16.56284 621 ft 17 kts 208°
2026-04-22 13:22 48.11668 16.56156 623 ft 15 kts 290°
2026-04-22 13:22 48.11711 16.56017 615 ft 15 kts 295°
2026-04-22 13:22 48.11757 16.55874 615 ft 15 kts 296°
2026-04-22 13:23 48.11804 16.55730 615 ft 16 kts 296°
2026-04-22 13:23 48.11852 16.55583 619 ft 16 kts 296°
2026-04-22 13:23 48.11895 16.55429 622 ft 16 kts 290°
2026-04-22 13:23 48.11941 16.55277 622 ft 16 kts 295°
2026-04-22 13:24 48.11990 16.55125 619 ft 16 kts 296°
2026-04-22 13:24 48.12039 16.54970 617 ft 17 kts 295°
2026-04-22 13:24 48.12091 16.54813 622 ft 17 kts 297°
2026-04-22 13:24 48.12144 16.54653 619 ft 17 kts 295°
2026-04-22 13:25 48.12190 16.54509 615 ft 7 kts 303°
2026-04-22 13:25 48.12230 16.54503 618 ft 6 kts 16°
2026-04-22 13:25 48.12263 16.54525 615 ft 3 kts 25°
2026-04-22 13:25 48.12271 16.54530 621 ft 0 kts 25°